| time (UTC) | temp F | wind direction | speed knots | gust knots | rain 1hr in | rain 24hr in | rain mn in | humidity % | barometer mb |
| 20260504110703 | 63 | 140 | 7.8 | 18.2 | 0.16 | 0.41 | 0.41 | 79 | 1015.4 |
| 20260504081704 | 72 | 120 | 6.1 | 20.0 | 0.00 | 0.24 | 0.24 | 65 | 1013.2 |
| 20260504080703 | 72 | 120 | 7.8 | 21.7 | 0.00 | 0.24 | 0.24 | 66 | 1013.1 |
| 20260504050704 | 74 | 110 | 8.7 | 19.1 | 0.00 | 0.24 | 0.24 | 66 | 1013.9 |
| 20260504045704 | 73 | 100 | 7.8 | 19.1 | 0.00 | 0.24 | 0.24 | 68 | 1014.0 |
| 20260504044704 | 74 | 100 | 7.0 | 19.1 | 0.00 | 0.24 | 0.24 | 67 | 1014.2 |
| 20260504043704 | 74 | 110 | 6.1 | 19.1 | 0.00 | 0.24 | 0.24 | 66 | 1014.3 |
| 20260504042704 | 74 | 100 | 7.0 | 19.1 | 0.00 | 0.24 | 0.24 | 65 | 1014.2 |
| 20260504041703 | 74 | 100 | 6.1 | 19.1 | 0.00 | 0.24 | 0.24 | 69 | 1014.3 |
| 20260504040703 | 74 | 100 | 7.8 | 13.9 | 0.00 | 0.24 | 0.24 | 67 | 1014.4 |
| 20260504035703 | 73 | 120 | 5.2 | 13.9 | 0.00 | 0.24 | 0.24 | 70 | 1014.8 |
| 20260504034704 | 73 | 100 | 7.0 | 13.9 | 0.00 | 0.24 | 0.24 | 69 | 1014.5 |
| 20260504033703 | 72 | 130 | 7.0 | 13.9 | 0.00 | 0.24 | 0.24 | 70 | 1014.7 |
| 20260504032704 | 72 | 120 | 7.0 | 13.9 | 0.00 | 0.24 | 0.24 | 69 | 1014.9 |
| 20260504031704 | 72 | 120 | 6.1 | 13.9 | 0.00 | 0.24 | 0.24 | 69 | 1015.0 |
| 20260504030703 | 72 | 130 | 4.3 | 12.2 | 0.00 | 0.24 | 0.24 | 70 | 1015.0 |
| 20260504025703 | 72 | 140 | 2.6 | 12.2 | 0.00 | 0.24 | 0.24 | 74 | 1015.1 |
| 20260504024703 | 70 | 140 | 5.2 | 12.2 | 0.00 | 0.24 | 0.24 | 73 | 1015.5 |
| 20260504023704 | 70 | 140 | 6.1 | 12.2 | 0.00 | 0.24 | 0.24 | 74 | 1015.4 |
| 20260504022703 | 69 | 130 | 5.2 | 12.2 | 0.00 | 0.24 | 0.24 | 76 | 1015.2 |
| 20260504021703 | 68 | 140 | 4.3 | 12.2 | 0.00 | 0.24 | 0.24 | 77 | 1015.5 |
| 20260504020704 | 69 | 130 | 6.1 | 13.0 | 0.00 | 0.24 | 0.24 | 75 | 1015.7 |
| 20260504015703 | 69 | 140 | 4.3 | 13.0 | 0.02 | 0.24 | 0.24 | 74 | 1015.8 |
| 20260504014703 | 68 | 150 | 3.5 | 13.0 | 0.02 | 0.24 | 0.24 | 78 | 1015.9 |
| 20260504013704 | 68 | 150 | 4.3 | 13.0 | 0.02 | 0.24 | 0.24 | 78 | 1015.9 |
| 20260504012704 | 69 | 150 | 4.3 | 13.0 | 0.02 | 0.24 | 0.24 | 78 | 1015.6 |
| 20260504011703 | 69 | 140 | 3.5 | 13.0 | 0.02 | 0.24 | 0.24 | 79 | 1015.6 |
| 20260504010704 | 68 | 150 | 3.5 | 18.2 | 0.02 | 0.24 | 0.24 | 81 | 1015.3 |
| 20260504005704 | 68 | 130 | 2.6 | 18.2 | 0.00 | 0.22 | 0.22 | 86 | 1015.2 |
| 20260504004704 | 68 | 130 | 4.3 | 18.2 | 0.02 | 0.22 | 0.22 | 85 | 1015.4 |
| 20260504003704 | 68 | 120 | 4.3 | 18.2 | 0.02 | 0.22 | 0.22 | 88 | 1015.4 |
| 20260504002703 | 67 | 120 | 6.1 | 18.2 | 0.02 | 0.22 | 0.22 | 89 | 1015.6 |
| 20260504001703 | 67 | 120 | 5.2 | 18.2 | 0.04 | 0.22 | 0.22 | 89 | 1015.6 |
| 20260504000703 | 67 | 120 | 6.1 | 15.6 | 0.04 | 0.22 | 0.22 | 88 | 1015.5 |
| 20260503235704 | 67 | 120 | 5.2 | 15.6 | 0.04 | 0.22 | 0.22 | 90 | 1015.6 |
| 20260503234703 | 67 | 110 | 5.2 | 15.6 | 0.04 | 0.20 | 0.20 | 89 | 1015.4 |
| 20260503233704 | 67 | 110 | 7.0 | 15.6 | 0.06 | 0.20 | 0.20 | 87 | 1015.5 |
| 20260503232704 | 67 | 100 | 6.1 | 15.6 | 0.12 | 0.20 | 0.20 | 90 | 1015.4 |
| 20260503231703 | 67 | 100 | 5.2 | 15.6 | 0.12 | 0.20 | 0.20 | 90 | 1015.3 |
| 20260503230703 | 67 | 100 | 6.1 | 15.6 | 0.14 | 0.18 | 0.18 | 90 | 1015.3 |
| 20260503225704 | 67 | 110 | 6.1 | 15.6 | 0.16 | 0.18 | 0.18 | 89 | 1015.0 |
| 20260503224703 | 67 | 90 | 6.1 | 15.6 | 0.14 | 0.16 | 0.16 | 89 | 1014.6 |
| 20260503223703 | 67 | 100 | 5.2 | 15.6 | 0.14 | 0.14 | 0.14 | 89 | 1014.4 |
| 20260503222703 | 67 | 100 | 6.1 | 15.6 | 0.08 | 0.08 | 0.08 | 89 | 1014.2 |
| 20260503221704 | 67 | 100 | 5.2 | 15.6 | 0.08 | 0.08 | 0.08 | 88 | 1014.1 |
| 20260503220711 | 68 | 100 | 6.1 | 18.2 | 0.04 | 0.04 | 0.04 | 86 | 1013.9 |
| 20260503215703 | 68 | 100 | 7.0 | 18.2 | 0.02 | 0.02 | 0.02 | 85 | 1013.6 |
| 20260503214703 | 69 | 100 | 5.2 | 18.2 | 0.02 | 0.02 | 0.02 | 81 | 1013.5 |
| 20260503213704 | 70 | 100 | 4.3 | 18.2 | 0.00 | 0.00 | 0.00 | 78 | 1013.5 |
| 20260503212704 | 71 | 100 | 5.2 | 18.2 | 0.00 | 0.00 | 0.00 | 73 | 1013.2 |
| 20260503211703 | 71 | 90 | 5.2 | 18.2 | 0.00 | 0.00 | 0.00 | 74 | 1012.9 |
| 20260503210704 | 72 | 110 | 4.3 | 14.8 | 0.00 | 0.00 | 0.00 | 72 | 1012.6 |
| 20260503205704 | 72 | 110 | 4.3 | 14.8 | 0.00 | 0.00 | 0.00 | 73 | 1012.5 |
| 20260503204703 | 72 | 120 | 5.2 | 14.8 | 0.00 | 0.00 | 0.00 | 73 | 1012.5 |
| 20260503203703 | 72 | 120 | 5.2 | 14.8 | 0.00 | 0.00 | 0.00 | 74 | 1012.3 |
| 20260503202703 | 72 | 120 | 4.3 | 14.8 | 0.00 | 0.00 | 0.00 | 76 | 1012.2 |
| 20260503201703 | 72 | 130 | 4.3 | 14.8 | 0.00 | 0.00 | 0.00 | 76 | 1012.2 |
| 20260503200703 | 72 | 130 | 4.3 | 16.5 | 0.00 | 0.00 | 0.00 | 77 | 1011.9 |
| 20260503195703 | 72 | 120 | 4.3 | 16.5 | 0.00 | 0.00 | 0.00 | 76 | 1011.8 |
| 20260503194703 | 72 | 100 | 6.1 | 16.5 | 0.00 | 0.00 | 0.00 | 76 | 1011.7 |
| 20260503193703 | 72 | 100 | 5.2 | 16.5 | 0.00 | 0.00 | 0.00 | 76 | 1011.6 |
| 20260503192703 | 71 | 100 | 4.3 | 16.5 | 0.00 | 0.00 | 0.00 | 77 | 1011.6 |
| 20260503191703 | 71 | 110 | 6.1 | 16.5 | 0.00 | 0.00 | 0.00 | 77 | 1011.5 |
| 20260503190703 | 71 | 120 | 5.2 | 22.6 | 0.00 | 0.00 | 0.00 | 77 | 1011.5 |
| 20260503185703 | 71 | 110 | 6.1 | 22.6 | 0.00 | 0.00 | 0.00 | 79 | 1011.5 |
| 20260503184704 | 71 | 110 | 5.2 | 22.6 | 0.00 | 0.00 | 0.00 | 78 | 1011.4 |
| 20260503183703 | 71 | 100 | 4.3 | 22.6 | 0.00 | 0.00 | 0.00 | 78 | 1011.3 |
| 20260503182704 | 71 | 90 | 5.2 | 22.6 | 0.00 | 0.00 | 0.00 | 78 | 1011.5 |
| 20260503181703 | 72 | 100 | 5.2 | 22.6 | 0.00 | 0.00 | 0.00 | 75 | 1011.5 |
| 20260503180703 | 72 | 110 | 6.1 | 21.7 | 0.00 | 0.00 | 0.00 | 73 | 1011.2 |
| 20260503175704 | 72 | 110 | 7.0 | 21.7 | 0.00 | 0.00 | 0.00 | 74 | 1011.3 |
| 20260503174703 | 72 | 110 | 6.1 | 21.7 | 0.00 | 0.00 | 0.00 | 76 | 1011.3 |
| 20260503173703 | 72 | 110 | 7.0 | 21.7 | 0.00 | 0.00 | 0.00 | 76 | 1011.0 |
| 20260503172707 | 72 | 100 | 7.8 | 21.7 | 0.00 | 0.00 | 0.00 | 76 | 1011.0 |
| 20260503171704 | 72 | 110 | 7.0 | 21.7 | 0.00 | 0.00 | 0.00 | 76 | 1011.1 |
| 20260503170704 | 72 | 110 | 8.7 | 22.6 | 0.00 | 0.00 | 0.00 | 77 | 1011.0 |
| 20260503150703 | 78 | 100 | 7.8 | 12.2 | 0.00 | 0.00 | 0.00 | 79 | 1009.8 |
| 20260503130704 | 80 | 310 | 6.1 | 13.0 | 0.00 | 0.00 | 0.00 | 78 | 1008.6 |